Wind from 120 at 14 knots

Air temperature 8.0° C
Visibility: greater than 0.2 NM
Dewpoint 8.0° C
Present weather: Fog.

Last reported at 2014-Apr-23 14:20 UTC.
Time now 2014-Apr-23 15:36 UTC

Location: N 58°27' W 003°05'.
View on Google Maps.

See reports from other nearby stations

Tides Stations Pressure Air Temp Water Temp Dewpoint Dewpoint depression Visibility Wind Speed Wind Dir Waves Ship positions

  
sailing weather and tide predictions

WICK weather

date/time (UTC)wind fromknots sea level pressurealtimeterstation pressurevisibilityair tempwater tempwave heightnotes
2014-Apr-23 14:20 120 14 0.2 8.0 Fog.
2014-Apr-23 13:50 140 13 0.2 8.0 Fog.
2014-Apr-23 13:20 130 15 0.2 8.0 Fog.
2014-Apr-23 12:50 130 13 0.2 8.0 Fog.
2014-Apr-23 12:20 130 16 0.2 8.0 Fog.
2014-Apr-23 11:50 130 12 0.2 8.0 Fog.
2014-Apr-23 11:20 140 13 0.5 8.0 Fog.
2014-Apr-23 10:50 140 14 0.8 8.0 Mist.
2014-Apr-23 10:20 140 15 0.1 8.0 Fog.
2014-Apr-23 09:50 140 12 0.1 8.0 Fog.
2014-Apr-23 09:20 140 14 0.1 8.0 Fog.
2014-Apr-23 08:50 130 12 0.1 8.0 Fog.
2014-Apr-23 08:20 130 14 0.3 8.0 Fog.
2014-Apr-23 07:50 130 13 0.1 8.0 Fog.
2014-Apr-23 07:20 140 13 0.2 8.0 Fog.
2014-Apr-23 06:50 130 12 0.2 8.0 Fog.
2014-Apr-23 06:20 120 13 0.1 8.0 Fog.
2014-Apr-23 05:50 140 13 0.1 8.0 Fog.
2014-Apr-22 19:20 070 13 3.8 8.0
2014-Apr-22 18:50 070 13 3.8 8.0
2014-Apr-22 18:20 060 9 3.8 8.0 Drizzle.
2014-Apr-22 17:50 080 9 3.8 9.0 Drizzle.
2014-Apr-22 17:20 070 12 3.8 8.0 Drizzle.
2014-Apr-22 16:50 070 12 3.2 8.0 Drizzle.
2014-Apr-22 16:20 070 11 3.2 9.0 Drizzle.
2014-Apr-22 15:50 070 10 4.3 9.0 Light rain.
2014-Apr-22 15:20 080 11 5.4 9.0 Light rain.
2014-Apr-22 14:50 070 11 5.4 9.0
2014-Apr-22 14:20 060 12 4.9 9.0
2014-Apr-22 13:50 060 10 4.9 9.0
2014-Apr-22 13:20 050 10 4.9 9.0
2014-Apr-22 12:50 060 11 4.910.0
2014-Apr-22 12:20 050 11 4.910.0
2014-Apr-22 11:50 050 12 4.911.0
2014-Apr-22 11:20 040 13 4.911.0
2014-Apr-22 10:50 040 14 4.910.0
2014-Apr-22 10:20 040 14 4.910.0
2014-Apr-22 09:50 050 15 4.910.0
2014-Apr-22 09:20 050 15 4.910.0
2014-Apr-22 08:50 040 17 4.9 9.0
2014-Apr-22 08:20 040 14 4.3 9.0
2014-Apr-22 07:50 040 15 4.3 8.0
2014-Apr-22 07:20 040 15 4.3 8.0
2014-Apr-22 06:50 040 14 4.3 8.0
2014-Apr-22 06:20 040 15 4.9 8.0
2014-Apr-22 05:50 040 13 4.3 7.0
2014-Apr-22 05:20 040 13 3.8 7.0
2014-Apr-22 04:50 040 11 4.3 7.0
2014-Apr-22 04:20 040 11 4.9 7.0
2014-Apr-22 03:50 040 10 5.4 6.0
2014-Apr-22 03:20 030 10 4.9 6.0
2014-Apr-22 02:50 040 9 5.4 6.0
2014-Apr-22 02:20 040 10 5.4 7.0
2014-Apr-22 01:50 040 9 5.4 7.0
2014-Apr-22 01:20 040 7 5.4 6.0
2014-Apr-22 00:50 050 7 5.4 6.0
2014-Apr-22 00:20 050 6 5.4 6.0
2014-Apr-21 23:50 060 6 5.4 6.0
2014-Apr-21 23:20 050 7 5.4 6.0
2014-Apr-21 22:50 050 7 5.4 6.0
2014-Apr-21 22:20 050 7 5.4 7.0
2014-Apr-21 21:50 050 9 4.9 7.0
2014-Apr-21 21:20 050 9 4.9 7.0
2014-Apr-21 20:50 050 7 5.4 7.0
2014-Apr-21 20:20 050 8 5.4 7.0
2014-Apr-21 19:50 050 8 5.4 7.0
2014-Apr-21 19:20 050 9 5.4 8.0
2014-Apr-21 18:50 050 10 5.4 8.0
2014-Apr-21 18:20 050 10 5.4 8.0
2014-Apr-21 17:50 050 11 5.4 9.0
2014-Apr-21 17:20 060 10 5.4 9.0
2014-Apr-21 16:50 060 11 5.4 9.0
2014-Apr-21 16:20 050 12 5.4 9.0
2014-Apr-21 15:50 050 13 5.4 9.0
2014-Apr-21 15:20 050 13 5.410.0